Showing default

BIRKELAND, 55015

Orbit data source: Space-Track

BIRKELAND, 55015 is a Norwegian payload satellite in SSO that was launched on Tue, 03 Jan 2023 UTC via an FALCON 9 launch vehicle from the Air Force Eastern Test Range (AFETR). Payload-class satellites include a variety of spacecraft equipped with specific instruments for various scientific and technological missions. These include communications satellites like Starlink; space stations such as the ISS; scientific satellites like the Hubble; Earth observation satellites from companies like Planet Labs, Umbra, and HawkEye 360; GPS; miniature CubeSats for education and research; and military/defense satellites.

Loading next visibility...
Identifier
55015, 2023-001G
Orbit
SSO
Country
Flag of NONO / NOR
Related business
Manufacturer
NanoAvionics
Mission
Operational Civil Sigint
Bus & Motor
CUBESAT 6U, Unknown motor
Mass
10 kg wet, ~10 kg dry
Launch date (UTC)
2023-01-03 (3 years ago)
Launch vehicle
FALCON 9
Launch site
Air Force Eastern Test Range (AFETR)
Object type
Payload
Rocket body
Debris
Shape & HBR
Box + 2 Pan, 0.1 m
Radar Cross Section
0.080 m², Medium (>0.1 m² and < 1m²)

Expand to show TLE details & history
Last TLE update: 11 hours ago

TLE from 11 hours ago
0 BIRKELAND
1 55015U 23001G   26014.20375168  .00006298  00000-0  17708-3 0  9998
2 55015  97.3563  81.9691 0005703 305.9724  54.0991 15.36850448168670
Epoch: 2026-01-14T04:53Z
TLE epoch observation values (Epoch: 2026-01-14T04:53:24.145Z)
Latitude
-0.00001°
Longitude
-105.0566°
Altitude
456.26 km
Speed
7.64 km/s
True Right ascension
05h 27m 52s
True Declination
0° 00' 00"
Sunlit
Object was in full shadow at epoch
Visualization orbit readout
Latitude
Unknown
Longitude
Unknown
Altitude
Unknown
Speed
Unknown
Apparent Right ascension
Unknown
Apparent Declination
Unknown
Sunlit
N/A
Visualization observer readout
Local Sidereal Time
16:34:36
Azimuth
Unknown
Elevation
Unknown
Doppler factor
Unknown
Orbital elements
Apogee altitude
456.266 km
Perigee altitude
448.475 km
Semi-major axis
6,830.508 km
Eccentricity
0.00057
Inclination
97.3563°
RAAN
81.9691°
Arg. of periapsis
305.9724°
True anomaly
54.15206°
Mean anomaly
54.0991°
Eccentric anomaly
54.12558°
Mean motion
3.84471 °/min
Orbital period
93.64 mins
BSTAR
0.00017708
Loading maneuver chart data...
Computing Atmospheric mass density...

Documentation

Showing up to 5 results
|